CZ-6A DEB, 55207

Orbit data source: Space-Track

CZ-6A DEB, 55207 is space debris in SSO originally from a launch on Fri, 11 Nov 2022 UTC launched from the Taiyaun Space Center, China (TSC). Debris objects in space refer to the collection of defunct objects orbiting the Earth. Examples of debris include non-operational satellites, rocket bodies, and fragments generated from explosions, collisions, or faulty payload assembly.

Loading next visibility...
Identifier
55207, 2022-151VY
Orbit
SSO
Country
Flag of CNCN / PRC
Related business
Manufacturer
SAST
Mission
Spacecraft
Bus & Motor
Unknown
Mass
Unknown
Launch date (UTC)
2022-11-11 (4 years ago)
Launch vehicle
Unknown
Launch site
Taiyaun Space Center, China (TSC)
Object type
Payload
Rocket body
Debris
Shape & HBR
Unknown shape, 0.1 m
Radar Cross Section
Medium (>0.1 m² and <1 m²)

Expand to show TLE details & history
Last TLE update: 1 day ago

TLE from 1 day ago
0 CZ-6A DEB
1 55207U 22151VY  26235.19108431  .00015695  00000-0  18071-2 0  9990
2 55207  98.6331 317.2722 0057620  42.8933 317.6752 14.84617967195654
Epoch: 2026-08-23T04:35Z
TLE epoch observation values (Epoch: 2026-08-23T04:35:09.684Z)
Latitude
-0°
Longitude
-83.00883°
Altitude
588.099 km
Speed
7.582 km/s
True Right ascension
21h 09m 05s
True Declination
0° 00' 00"
Sunlit
Object was in full shadow at epoch
Visualization orbit readout
Latitude
Unknown
Longitude
Unknown
Altitude
Unknown
Speed
Unknown
Apparent Right ascension
Unknown
Apparent Declination
Unknown
Sunlit
N/A
Visualization observer readout
Local Sidereal Time
00:47:22
Azimuth
Unknown
Elevation
Unknown
Doppler factor
Unknown
Orbital elements
Apogee altitude
652.131 km
Perigee altitude
571.578 km
Semi-major axis
6,989.991 km
Eccentricity
0.00576
Inclination
98.6331°
RAAN
317.2722°
Arg. of periapsis
42.8933°
True anomaly
317.22824°
Mean anomaly
317.6752°
Eccentric anomaly
317.45196°
Mean motion
3.71388 °/min
Orbital period
96.93 mins
BSTAR
0.0018071
Loading maneuver chart data...
Computing Atmospheric mass density...
Loading historical data...
Loading historical data...
Loading historical data...
Loading historical data...
Loading historical data...
Loading historical data...
Loading historical data...

Documentation

Showing up to 5 results
|